Location: *
(46.4000°N, 12.6667°E)
Time: 04:46:12
(UTC+00:00)

Envisat - Pass Details

Date: 12 December 2021
Orbit: 764 x 766 km, 98.2° (Epoch: 16 January)

Event Time Altitude Azimuth Distance (km) Brightness Sun altitude
Rises 05:32:53 0° 2° (N) 3,244 6.0 -11.6°
Reaches altitude 10° 05:35:38 10° 347° (NNW) 2,313 5.2 -11.2°
Maximum altitude 05:39:28 22° 299° (WNW) 1,632 4.1 -10.6°
Drops below altitude 10° 05:43:16 10° 250° (WSW) 2,300 5.1 -10.0°
Sets 05:46:01 0° 235° (SW) 3,222 5.9 -9.5°
